AZU2800 SBPA-SBKP

Flight info

Callsign AZU2800
Flight time 1h 13m
Altitude 39000
Route PENSO UZ132 EDRAT
Aircraft A20N/M-SDE2E3FGHIRWXY/LB1

Departure

Time 2026-05-07 22:32
Airport Porto Alegre-Salgado Filho International Airport (SBPA)

Arrival

Time 2026-05-07 23:45
Airport Viracopos International Airport (SBKP)
Time Latitude Longitude Altitude Speed Heading
2026-05-07 22:14 -29.99101 -51.17713 19 ft 0 kts 13°
2026-05-07 22:22 -29.99121 -51.17717 22 ft 4 kts
2026-05-07 22:22 -29.99144 -51.17716 21 ft 3 kts 339°
2026-05-07 22:22 -29.99160 -51.17702 19 ft 3 kts 297°
2026-05-07 22:23 -29.99167 -51.17679 19 ft 3 kts 278°
2026-05-07 22:23 -29.99169 -51.17663 19 ft 2 kts 274°
2026-05-07 22:23 -29.99169 -51.17650 19 ft 2 kts 272°
2026-05-07 22:23 -29.99170 -51.17637 19 ft 2 kts 271°
2026-05-07 22:24 -29.99170 -51.17634 19 ft 0 kts 270°
2026-05-07 22:27 -29.99170 -51.17639 19 ft 3 kts 270°
2026-05-07 22:27 -29.99190 -51.17683 19 ft 10 kts 202°
2026-05-07 22:27 -29.99266 -51.17713 19 ft 13 kts 224°
2026-05-07 22:28 -29.99284 -51.17845 19 ft 20 kts 272°
2026-05-07 22:28 -29.99283 -51.17977 19 ft 17 kts 262°
2026-05-07 22:28 -29.99320 -51.18103 19 ft 12 kts 249°
2026-05-07 22:28 -29.99350 -51.18192 21 ft 13 kts 249°
2026-05-07 22:29 -29.99416 -51.18240 20 ft 13 kts 160°
2026-05-07 22:29 -29.99441 -51.18186 21 ft 13 kts 92°
2026-05-07 22:29 -29.99441 -51.18160 21 ft 0 kts 91°
2026-05-07 22:31 -29.99442 -51.18077 21 ft 40 kts 90°
2026-05-07 22:31 -29.99455 -51.17461 18 ft 110 kts 90°
2026-05-07 22:31 -29.99485 -51.15921 181 ft 163 kts 90°
2026-05-07 22:32 -29.99527 -51.14559 538 ft 181 kts 90°
2026-05-07 22:32 -29.99579 -51.13046 871 ft 198 kts 89°
2026-05-07 22:32 -29.99644 -51.11386 1324 ft 217 kts 88°
2026-05-07 22:32 -29.99714 -51.09547 1709 ft 241 kts 88°
2026-05-07 22:33 -29.99768 -51.07525 2110 ft 263 kts 85°
2026-05-07 22:33 -29.99762 -51.06081 2418 ft 277 kts 85°
2026-05-07 22:33 -29.99184 -51.03277 3557 ft 269 kts 52°
2026-05-07 22:33 -29.97909 -51.01773 4478 ft 259 kts 24°
2026-05-07 22:34 -29.97370 -51.01460 4766 ft 256 kts 15°
2026-05-07 22:34 -29.95056 -51.00866 5949 ft 261 kts 13°
2026-05-07 22:34 -29.92835 -50.99662 7072 ft 271 kts 23°
2026-05-07 22:34 -29.91171 -50.98595 7926 ft 275 kts 24°
2026-05-07 22:35 -29.89467 -50.97539 8776 ft 279 kts 22°
2026-05-07 22:35 -29.87721 -50.96515 9618 ft 284 kts 22°
2026-05-07 22:35 -29.85912 -50.95497 10171 ft 298 kts 21°
2026-05-07 22:35 -29.83964 -50.94429 10434 ft 321 kts 21°
2026-05-07 22:36 -29.81895 -50.93302 10827 ft 337 kts 20°
2026-05-07 22:36 -29.79699 -50.92377 11578 ft 336 kts 10°
2026-05-07 22:36 -29.77395 -50.91937 12322 ft 336 kts 360°
2026-05-07 22:36 -29.75058 -50.91944 13091 ft 337 kts 355°
2026-05-07 22:37 -29.73502 -50.91991 13558 ft 340 kts 355°
2026-05-07 22:37 -29.71109 -50.92050 14189 ft 345 kts 355°
2026-05-07 22:37 -29.68694 -50.92103 14556 ft 348 kts 355°
2026-05-07 22:37 -29.65455 -50.92169 14695 ft 349 kts 355°
2026-05-07 22:38 -29.63850 -50.92203 14716 ft 349 kts 355°
2026-05-07 22:38 -29.61413 -50.92254 14718 ft 350 kts 355°
2026-05-07 22:38 -29.58984 -50.92305 14720 ft 349 kts 355°
2026-05-07 22:38 -29.56546 -50.92358 14722 ft 350 kts 355°
2026-05-07 22:39 -29.54105 -50.92411 14726 ft 351 kts 355°
2026-05-07 22:39 -29.51658 -50.92464 14730 ft 351 kts 355°
2026-05-07 22:39 -29.49247 -50.92515 14732 ft 351 kts 355°
2026-05-07 22:39 -29.47592 -50.92551 14733 ft 352 kts 355°
2026-05-07 22:40 -29.44355 -50.92621 14738 ft 350 kts 355°
2026-05-07 22:40 -29.41923 -50.92674 14744 ft 351 kts 355°
2026-05-07 22:40 -29.39475 -50.92727 14746 ft 351 kts 355°
2026-05-07 22:40 -29.37024 -50.92780 14747 ft 352 kts 355°
2026-05-07 22:41 -29.34567 -50.92833 14750 ft 353 kts 355°
2026-05-07 22:41 -29.32134 -50.92887 14759 ft 354 kts 355°
2026-05-07 22:41 -29.29676 -50.92939 14757 ft 351 kts 355°
2026-05-07 22:41 -29.27230 -50.92992 14757 ft 353 kts 355°
2026-05-07 22:42 -29.24780 -50.93046 14763 ft 353 kts 355°
2026-05-07 22:42 -29.22318 -50.93100 14764 ft 353 kts 355°
2026-05-07 22:42 -29.19862 -50.93266 14837 ft 354 kts 349°
2026-05-07 22:42 -29.17416 -50.93672 15394 ft 356 kts 348°
2026-05-07 22:43 -29.14956 -50.94067 16105 ft 357 kts 348°
2026-05-07 22:43 -29.12471 -50.94459 16711 ft 362 kts 348°
2026-05-07 22:43 -29.09993 -50.94850 17330 ft 366 kts 348°
2026-05-07 22:43 -29.07430 -50.95255 17961 ft 369 kts 348°
2026-05-07 22:44 -29.04908 -50.95654 18496 ft 373 kts 348°
2026-05-07 22:44 -29.02316 -50.96063 19063 ft 376 kts 348°
2026-05-07 22:44 -28.99710 -50.96475 19627 ft 378 kts 348°
2026-05-07 22:44 -28.97088 -50.96889 20175 ft 381 kts 348°
2026-05-07 22:45 -28.94454 -50.97305 20710 ft 385 kts 348°
2026-05-07 22:45 -28.91783 -50.97727 21240 ft 388 kts 348°
2026-05-07 22:45 -28.89129 -50.98146 21794 ft 391 kts 347°
2026-05-07 22:45 -28.86380 -50.98579 22337 ft 395 kts 347°
2026-05-07 22:46 -28.83650 -50.99001 22872 ft 400 kts 349°
2026-05-07 22:46 -28.80876 -50.99173 23388 ft 408 kts 355°
2026-05-07 22:46 -28.78014 -50.98953 23841 ft 416 kts
2026-05-07 22:46 -28.75137 -50.98350 24250 ft 423 kts
2026-05-07 22:47 -28.72238 -50.97661 24641 ft 428 kts
2026-05-07 22:47 -28.69305 -50.96980 25033 ft 432 kts
2026-05-07 22:47 -28.66340 -50.96296 25442 ft 435 kts
2026-05-07 22:47 -28.63339 -50.95607 25835 ft 439 kts
2026-05-07 22:48 -28.60383 -50.94928 26227 ft 442 kts
2026-05-07 22:48 -28.57345 -50.94231 26585 ft 446 kts
2026-05-07 22:48 -28.54292 -50.93531 26975 ft 450 kts
2026-05-07 22:48 -28.51195 -50.92821 27361 ft 453 kts
2026-05-07 22:49 -28.48117 -50.92116 27716 ft 457 kts
2026-05-07 22:49 -28.44988 -50.91399 28068 ft 460 kts
2026-05-07 22:49 -28.41830 -50.90676 28432 ft 463 kts
2026-05-07 22:49 -28.38662 -50.89951 28773 ft 466 kts
2026-05-07 22:50 -28.35467 -50.89221 29090 ft 470 kts
2026-05-07 22:50 -28.32250 -50.88487 29398 ft 473 kts
2026-05-07 22:50 -28.29017 -50.87749 29726 ft 476 kts
2026-05-07 22:50 -28.25782 -50.87010 30031 ft 478 kts
2026-05-07 22:51 -28.22499 -50.86261 30276 ft 482 kts
2026-05-07 22:51 -28.19228 -50.85516 30542 ft 485 kts
2026-05-07 22:51 -28.15905 -50.84759 30816 ft 488 kts
2026-05-07 22:51 -28.12571 -50.84002 31155 ft 489 kts
2026-05-07 22:52 -28.09242 -50.83243 31530 ft 489 kts
2026-05-07 22:52 -28.05907 -50.82316 31852 ft 495 kts 11°
2026-05-07 22:52 -28.03746 -50.81462 32082 ft 499 kts 16°
2026-05-07 22:52 -28.00571 -50.79802 32460 ft 504 kts 23°
2026-05-07 22:53 -27.97473 -50.77923 32744 ft 505 kts 23°
2026-05-07 22:53 -27.93361 -50.75444 33183 ft 506 kts 23°
2026-05-07 22:53 -27.90255 -50.73582 33493 ft 506 kts 23°
2026-05-07 22:53 -27.87128 -50.71712 33783 ft 507 kts 23°
2026-05-07 22:54 -27.84015 -50.69853 34041 ft 507 kts 23°
2026-05-07 22:54 -27.80889 -50.67987 34303 ft 508 kts 23°
2026-05-07 22:54 -27.77749 -50.66115 34573 ft 508 kts 23°
2026-05-07 22:54 -27.74631 -50.64256 34828 ft 508 kts 23°
2026-05-07 22:55 -27.71533 -50.62412 35056 ft 508 kts 23°
2026-05-07 22:55 -27.68404 -50.60549 35318 ft 508 kts 23°
2026-05-07 22:55 -27.65273 -50.58686 35569 ft 508 kts 23°
2026-05-07 22:55 -27.62127 -50.56816 35811 ft 508 kts 23°
2026-05-07 22:56 -27.59028 -50.54974 36033 ft 509 kts 23°
2026-05-07 22:56 -27.56910 -50.53717 36176 ft 509 kts 23°
2026-05-07 22:56 -27.52766 -50.51258 36493 ft 508 kts 23°
2026-05-07 22:56 -27.49625 -50.49395 36714 ft 508 kts 23°
2026-05-07 22:57 -27.46494 -50.47540 36887 ft 509 kts 23°
2026-05-07 22:57 -27.40260 -50.43835 36896 ft 507 kts 23°
2026-05-07 22:58 -27.34026 -50.40083 36903 ft 508 kts 24°
2026-05-07 22:58 -27.27772 -50.36329 36904 ft 509 kts 24°
2026-05-07 22:59 -27.21564 -50.32612 36905 ft 509 kts 24°
2026-05-07 22:59 -27.15272 -50.28887 36905 ft 509 kts 23°
2026-05-07 23:00 -27.10048 -50.25813 36905 ft 509 kts 23°
2026-05-07 23:00 -27.03772 -50.22118 36904 ft 508 kts 23°
2026-05-07 23:01 -26.96477 -50.17826 36899 ft 509 kts 24°
2026-05-07 23:01 -26.90193 -50.14134 36911 ft 509 kts 24°
2026-05-07 23:02 -26.83904 -50.10442 36910 ft 510 kts 23°
2026-05-07 23:02 -26.77637 -50.06768 36910 ft 510 kts 24°
2026-05-07 23:03 -26.71368 -50.03098 36909 ft 509 kts 24°
2026-05-07 23:03 -26.65081 -49.99421 36907 ft 509 kts 24°
2026-05-07 23:04 -26.58800 -49.95754 36912 ft 508 kts 24°
2026-05-07 23:04 -26.52544 -49.92103 36924 ft 509 kts 24°
2026-05-07 23:05 -26.46260 -49.88442 36920 ft 508 kts 24°
2026-05-07 23:05 -26.40034 -49.84819 36926 ft 507 kts 24°
2026-05-07 23:06 -26.33758 -49.81172 36935 ft 507 kts 24°
2026-05-07 23:06 -26.27506 -49.77540 36942 ft 507 kts 24°
2026-05-07 23:07 -26.21241 -49.73902 36940 ft 507 kts 24°
2026-05-07 23:07 -26.14996 -49.70282 36940 ft 507 kts 24°
2026-05-07 23:08 -26.09777 -49.67260 36944 ft 507 kts 24°
2026-05-07 23:08 -26.02457 -49.63025 36944 ft 507 kts 24°
2026-05-07 23:09 -25.96225 -49.59425 36956 ft 507 kts 24°
2026-05-07 23:09 -25.89964 -49.55813 36954 ft 507 kts 24°
2026-05-07 23:10 -25.83678 -49.52190 36955 ft 507 kts 24°
2026-05-07 23:10 -25.77426 -49.48592 36954 ft 507 kts 24°
2026-05-07 23:11 -25.71198 -49.45011 36965 ft 506 kts 24°
2026-05-07 23:11 -25.65998 -49.42025 36980 ft 506 kts 24°
2026-05-07 23:12 -25.58681 -49.37829 36999 ft 506 kts 24°
2026-05-07 23:12 -25.52432 -49.34248 37010 ft 505 kts 24°
2026-05-07 23:13 -25.46183 -49.30681 37022 ft 505 kts 24°
2026-05-07 23:13 -25.39973 -49.27141 37023 ft 505 kts 24°
2026-05-07 23:14 -25.34747 -49.24160 37023 ft 505 kts 24°
2026-05-07 23:14 -25.27490 -49.20022 37013 ft 505 kts 24°
2026-05-07 23:15 -25.22290 -49.17061 36999 ft 505 kts 24°
2026-05-07 23:15 -25.16053 -49.13514 36983 ft 504 kts 24°
2026-05-07 23:16 -25.08758 -49.09354 36964 ft 505 kts 24°
2026-05-07 23:16 -25.03585 -49.06405 36960 ft 504 kts 24°
2026-05-07 23:17 -24.96298 -49.02259 36952 ft 504 kts 24°
2026-05-07 23:17 -24.90098 -48.98737 36954 ft 504 kts 24°
2026-05-07 23:18 -24.83856 -48.95195 36948 ft 504 kts 24°
2026-05-07 23:18 -24.77617 -48.91661 36960 ft 503 kts 24°
2026-05-07 23:19 -24.71366 -48.88145 36954 ft 504 kts 24°
2026-05-07 23:19 -24.65129 -48.84641 36959 ft 504 kts 24°
2026-05-07 23:20 -24.58879 -48.81130 36965 ft 505 kts 24°
2026-05-07 23:20 -24.52615 -48.77613 36974 ft 506 kts 24°
2026-05-07 23:21 -24.46575 -48.73611 36965 ft 506 kts 30°
2026-05-07 23:21 -24.40620 -48.69499 36967 ft 506 kts 30°
2026-05-07 23:22 -24.34691 -48.65420 36965 ft 506 kts 29°
2026-05-07 23:22 -24.28707 -48.61308 36967 ft 506 kts 30°
2026-05-07 23:23 -24.23745 -48.57902 36884 ft 508 kts 30°
2026-05-07 23:23 -24.20753 -48.55842 36595 ft 505 kts 27°
2026-05-07 23:23 -24.16839 -48.53141 35953 ft 501 kts 27°
2026-05-07 23:23 -24.13840 -48.51087 35146 ft 503 kts 27°
2026-05-07 23:24 -24.10899 -48.49076 34291 ft 506 kts 28°
2026-05-07 23:24 -24.08885 -48.47701 33703 ft 508 kts 28°
2026-05-07 23:24 -24.04920 -48.44992 32591 ft 506 kts 28°
2026-05-07 23:24 -24.01933 -48.42953 31794 ft 504 kts 28°
2026-05-07 23:25 -23.99921 -48.41579 31248 ft 503 kts 29°
2026-05-07 23:25 -23.95995 -48.38901 30198 ft 501 kts 29°
2026-05-07 23:25 -23.93032 -48.36880 29256 ft 500 kts 29°
2026-05-07 23:25 -23.90093 -48.34876 28505 ft 496 kts 29°
2026-05-07 23:26 -23.88167 -48.33558 28060 ft 492 kts 30°
2026-05-07 23:26 -23.85445 -48.31298 27382 ft 490 kts 40°
2026-05-07 23:26 -23.83100 -48.28606 26726 ft 488 kts 49°
2026-05-07 23:26 -23.81186 -48.25564 26075 ft 485 kts 58°
2026-05-07 23:27 -23.77852 -48.19238 24828 ft 476 kts 58°
2026-05-07 23:27 -23.76200 -48.16131 24229 ft 471 kts 58°
2026-05-07 23:27 -23.74561 -48.13055 23648 ft 466 kts 58°
2026-05-07 23:28 -23.72941 -48.10016 22850 ft 458 kts 58°
2026-05-07 23:28 -23.71371 -48.07074 22043 ft 448 kts 58°
2026-05-07 23:28 -23.69810 -48.04148 21480 ft 433 kts 58°
2026-05-07 23:28 -23.68342 -48.01397 20910 ft 420 kts 58°
2026-05-07 23:29 -23.66887 -47.98673 20310 ft 408 kts 57°
2026-05-07 23:29 -23.65481 -47.96043 19773 ft 396 kts 57°
2026-05-07 23:29 -23.64105 -47.93470 19226 ft 386 kts 57°
2026-05-07 23:29 -23.62765 -47.90967 18677 ft 377 kts 57°
2026-05-07 23:30 -23.61456 -47.88521 18101 ft 368 kts 57°
2026-05-07 23:30 -23.60197 -47.86172 17613 ft 358 kts 57°
2026-05-07 23:30 -23.58959 -47.83862 17102 ft 348 kts 57°
2026-05-07 23:30 -23.57716 -47.81550 16595 ft 366 kts 57°
2026-05-07 23:31 -23.56397 -47.79104 16053 ft 381 kts 57°
2026-05-07 23:31 -23.55049 -47.76596 15465 ft 383 kts 57°
2026-05-07 23:31 -23.53719 -47.74115 14917 ft 377 kts 57°
2026-05-07 23:31 -23.52396 -47.71648 14384 ft 375 kts 57°
2026-05-07 23:32 -23.51080 -47.69197 13850 ft 373 kts 57°
2026-05-07 23:32 -23.49777 -47.66772 13276 ft 369 kts 57°
2026-05-07 23:32 -23.48484 -47.64367 12769 ft 364 kts 57°
2026-05-07 23:32 -23.47212 -47.62003 12264 ft 359 kts 57°
2026-05-07 23:33 -23.45968 -47.59689 12041 ft 346 kts 56°
2026-05-07 23:33 -23.44764 -47.57453 11991 ft 343 kts 56°
2026-05-07 23:33 -23.43542 -47.55190 11915 ft 347 kts 56°
2026-05-07 23:33 -23.42349 -47.52977 11855 ft 339 kts 56°
2026-05-07 23:34 -23.41174 -47.50793 11761 ft 328 kts 56°
2026-05-07 23:34 -23.40044 -47.48693 11647 ft 315 kts 56°
2026-05-07 23:34 -23.38959 -47.46678 11511 ft 303 kts 56°
2026-05-07 23:34 -23.37896 -47.44708 11162 ft 300 kts 56°
2026-05-07 23:35 -23.36838 -47.42753 10743 ft 299 kts 55°
2026-05-07 23:35 -23.35785 -47.40808 10367 ft 297 kts 55°
2026-05-07 23:35 -23.34739 -47.38873 9994 ft 296 kts 55°
2026-05-07 23:35 -23.33701 -47.36952 9598 ft 294 kts 55°
2026-05-07 23:36 -23.32665 -47.35037 9181 ft 293 kts 55°
2026-05-07 23:36 -23.31632 -47.33129 8779 ft 291 kts 55°
2026-05-07 23:36 -23.30608 -47.31236 8454 ft 286 kts 55°
2026-05-07 23:36 -23.29628 -47.29421 8367 ft 282 kts 55°
2026-05-07 23:37 -23.28619 -47.27561 8278 ft 286 kts 55°
2026-05-07 23:37 -23.27605 -47.25689 8186 ft 284 kts 55°
2026-05-07 23:37 -23.26616 -47.23862 8082 ft 282 kts 55°
2026-05-07 23:37 -23.25614 -47.22015 8025 ft 282 kts 55°
2026-05-07 23:38 -23.24612 -47.20168 7827 ft 283 kts 55°
2026-05-07 23:38 -23.23630 -47.18354 7487 ft 283 kts 55°
2026-05-07 23:38 -23.22631 -47.16514 7202 ft 279 kts 55°
2026-05-07 23:38 -23.21652 -47.14705 6962 ft 277 kts 55°
2026-05-07 23:39 -23.20670 -47.12897 6729 ft 276 kts 56°
2026-05-07 23:39 -23.19697 -47.11107 6548 ft 274 kts 55°
2026-05-07 23:39 -23.18753 -47.09368 6483 ft 264 kts 55°
2026-05-07 23:39 -23.17777 -47.07748 6433 ft 246 kts 46°
2026-05-07 23:40 -23.16608 -47.06471 6350 ft 231 kts 35°
2026-05-07 23:40 -23.15354 -47.05442 6190 ft 224 kts 33°
2026-05-07 23:40 -23.14157 -47.04448 6064 ft 213 kts 34°
2026-05-07 23:40 -23.13021 -47.03485 5958 ft 201 kts 34°
2026-05-07 23:41 -23.11929 -47.02554 5734 ft 196 kts 33°
2026-05-07 23:41 -23.10777 -47.01822 5487 ft 188 kts 10°
2026-05-07 23:41 -23.09568 -47.01859 5438 ft 169 kts 343°
2026-05-07 23:41 -23.08601 -47.02492 5335 ft 158 kts 317°
2026-05-07 23:42 -23.07960 -47.03403 5231 ft 150 kts 311°
2026-05-07 23:42 -23.07540 -47.04007 5094 ft 146 kts 313°
2026-05-07 23:42 -23.06713 -47.05151 4571 ft 147 kts 314°
2026-05-07 23:42 -23.06074 -47.06030 4186 ft 148 kts 314°
2026-05-07 23:43 -23.05448 -47.06898 3882 ft 145 kts 314°
2026-05-07 23:43 -23.04825 -47.07774 3627 ft 151 kts 312°
2026-05-07 23:43 -23.04423 -47.08392 3432 ft 150 kts 310°
2026-05-07 23:43 -23.03599 -47.09577 3016 ft 148 kts 315°
2026-05-07 23:44 -23.02911 -47.10453 2719 ft 154 kts 311°
2026-05-07 23:44 -23.02272 -47.11366 2474 ft 151 kts 310°
2026-05-07 23:44 -23.01623 -47.12253 2216 ft 150 kts 313°
2026-05-07 23:44 -23.00986 -47.13091 2161 ft 123 kts 307°
2026-05-07 23:45 -23.00522 -47.13750 2166 ft 94 kts 308°
2026-05-07 23:45 -23.00222 -47.14175 2167 ft 36 kts 307°
2026-05-07 23:45 -23.00088 -47.14368 2168 ft 32 kts 307°
2026-05-07 23:45 -23.00009 -47.14475 2159 ft 13 kts 309°
2026-05-07 23:46 -22.99964 -47.14571 2167 ft 15 kts 277°
2026-05-07 23:46 -23.00004 -47.14670 2167 ft 13 kts 219°
2026-05-07 23:46 -23.00009 -47.14674 2166 ft 0 kts 219°
2026-05-07 23:47 -23.00015 -47.14679 2168 ft 3 kts 215°
2026-05-07 23:47 -23.00066 -47.14684 2166 ft 12 kts 164°
2026-05-07 23:47 -23.00144 -47.14598 2168 ft 18 kts 132°
2026-05-07 23:47 -23.00256 -47.14617 2165 ft 15 kts 198°
2026-05-07 23:48 -23.00265 -47.14622 2168 ft 0 kts 211°
2026-05-07 23:48 -23.00276 -47.14636 2167 ft 8 kts 225°
2026-05-07 23:48 -23.00351 -47.14703 2164 ft 15 kts 218°
2026-05-07 23:48 -23.00424 -47.14764 2162 ft 12 kts 219°
2026-05-07 23:49 -23.00453 -47.14789 2161 ft 3 kts 218°
2026-05-07 23:49 -23.00462 -47.14796 2161 ft 0 kts 217°